Home   Weather   Nottingham   Past weeks

Flag for United Kingdom Past Weather in Nottingham, England, United Kingdom — Yesterday and Last 2 Weeks

Now
70 °F

Sunny.


Feels Like: 70 °F
Forecast: 56 / 74 °F
Wind: 3 mph from North

Location: East Midlands

Current Time: May 24, 2017 at 8:54:00 pm

Latest Report: May 24, 2017 at 8:20 pm


Visibility: 10 mi

Pressure: 30.27 "Hg

Humidity: 64%

Dew Point: 57 °F

Location of NottinghamLocation

Past Weather in Nottingham — Graph

°F

Nottingham Temperature Yesterday

Maximum temperature yesterday: 70 °F (at 4:20 pm)
Minimum temperature yesterday: 50 °F (at 3:20 am)
Average temperature yesterday: 60 °F

High & Low Weather Summary for the Past Weeks

 TemperatureHumidityPressure
High73 °F (May 24, 2:50 pm)100% (May 12, 5:50 am)30.30 "Hg (May 12, 5:50 am)
Low36 °F (May 10, 4:50 am)39% (May 10, 3:20 pm)29.39 "Hg (May 11, 3:50 pm)
Average55 °F79%29.93 "Hg
* Reported May 9 7:20 pm — May 24 7:50 pm, Nottingham. Weather by CustomWeather, © 2017

Note: Actual official high and low records may vary slightly from our data, if they occured in-between our weather recording intervals... More about our weather records

Advertising

Nottingham Weather History for the Previous 24 Hours

Scroll right to see more
 ConditionsComfort  
Time TempWeatherWind HumidityBarometerVisibility
7:50 pm
Wed, May 24
70 °FSunny.5 mph64%30.27 "Hg10 mi
7:20 pm72 °FSunny.8 mph61%30.27 "Hg10 mi
6:50 pm73 °FPassing clouds.5 mph61%30.27 "HgN/A
6:20 pm72 °FPassing clouds.8 mph61%30.27 "HgN/A
5:50 pm73 °FPassing clouds.9 mph57%30.27 "HgN/A
5:20 pm73 °FScattered clouds.8 mph57%30.27 "HgN/A
4:50 pm72 °FPartly sunny.9 mph61%30.27 "HgN/A
3:50 pm73 °FPassing clouds.9 mph61%30.30 "HgN/A
3:20 pm72 °FPassing clouds.8 mph61%30.30 "HgN/A
2:50 pm73 °FScattered clouds.9 mph61%30.30 "HgN/A
2:20 pm72 °FScattered clouds.12 mph61%30.30 "HgN/A
1:50 pm72 °FScattered clouds.10 mph65%30.30 "HgN/A
1:20 pm72 °FScattered clouds.10 mph65%30.30 "HgN/A
12:50 pm72 °FPassing clouds.10 mph65%30.30 "HgN/A
12:20 pm70 °FPassing clouds.13 mph69%30.30 "HgN/A
11:50 am70 °FSunny.13 mph64%30.30 "Hg10 mi
11:20 am68 °FSunny.13 mph73%30.30 "Hg10 mi
10:50 am68 °FSunny.13 mph69%30.30 "Hg10 mi
10:20 am68 °FSunny.13 mph69%30.30 "Hg10 mi
9:50 am66 °FPassing clouds.13 mph73%30.30 "HgN/A
9:20 am64 °FPassing clouds.14 mph78%30.30 "HgN/A
8:50 am63 °FPassing clouds.9 mph83%30.30 "HgN/A
8:20 am63 °FSunny.8 mph83%30.30 "Hg10 mi
7:50 am59 °FSunny.8 mph88%30.27 "Hg10 mi
7:20 am57 °FSunny.8 mph88%30.27 "Hg10 mi
6:50 am55 °FSunny.7 mph88%30.27 "Hg10 mi
6:20 am55 °FSunny.7 mph88%30.27 "Hg10 mi
5:20 am54 °FSunny.8 mph88%30.24 "Hg10 mi
4:50 am52 °FClear.9 mph94%30.24 "Hg10 mi
4:20 am52 °FClear.9 mph94%30.24 "Hg10 mi
3:50 am54 °FClear.7 mph88%30.24 "Hg10 mi
3:20 am52 °FClear.7 mph94%30.24 "Hg10 mi
2:50 am54 °FClear.6 mph88%30.24 "Hg10 mi
2:20 am55 °FPassing clouds.7 mph82%30.24 "HgN/A
1:20 am54 °FClear.6 mph82%30.24 "Hg10 mi
12:50 am54 °FClear.7 mph82%30.24 "Hg10 mi
12:20 am55 °FClear.8 mph77%30.24 "Hg10 mi
11:50 pm
Tue, May 23
57 °FClear.8 mph72%30.21 "Hg10 mi
11:20 pm59 °FClear.8 mph68%30.24 "Hg10 mi
10:50 pm59 °FClear.6 mph68%30.24 "Hg10 mi
10:20 pm59 °FClear.6 mph72%30.24 "Hg10 mi
9:50 pm61 °FClear.7 mph68%30.21 "Hg10 mi
9:20 pm63 °FClear.8 mph68%30.21 "Hg10 mi
8:50 pm64 °FPassing clouds.8 mph68%30.18 "HgN/A
8:20 pm66 °FPassing clouds.9 mph64%30.18 "HgN/A
Weather by CustomWeather, © 2017

See weather overviewHow to use our weather pages